Location: R�serve Fauniques des Laurentides
(47.3100°N, 71.1900°W)
Time: 07:46:43
(UTC-04:00)

Amateur Radio Satellites - All Passes

Search period start: 28 May 2016 07:16
Search period end: 29 May 2016 07:16
Location: R�serve Fauniques des Laurentides, 47.3100°N, 71.1900°W

Satellite Date Start Highest point End Downlink Frequencies (MHz)
Time Altitude Azimuth
BRITE-PL 28 May 07:20:36 07:25:50 77° 286° (WNW) 07:30:36 437.365/2234.400
Cosmos 2491 28 May 07:22:23 07:26:25 14° 312° (NW) 07:30:28 435.465 / 435.565
HO-68 28 May 07:23:15 07:27:17 16° 86° (E) 07:31:18 435.675
CUTE 1.7 + AOD 2 28 May 07:37:17 07:38:30 11° 87° (E) 07:39:43 437.475
GOMX 1 28 May 07:42:44 07:47:32 87° 104° (ESE) 07:51:57 467.674
LilacSat-2 28 May 07:44:13 07:47:48 41° 289° (WNW) 07:51:23 437.200
Cosmos 2499 28 May 07:46:17 07:52:38 22° 59° (ENE) 07:59:09 435.465 / 435.565
CUTE-I 28 May 07:46:58 07:52:15 60° 290° (WNW) 07:57:30 437.470
AIST 1 28 May 08:00:43 08:05:02 55° 77° (ENE) 08:09:16
GONETS M04 28 May 08:13:32 08:21:51 46° 70° (ENE) 08:30:05
AO-7 28 May 08:22:57 08:25:18 11° 330° (NNW) 08:27:40 29.400- 29.500
DOVE 4 28 May 08:28:58 08:33:23 67° 287° (WNW) 08:37:34 437.250
NOAA 15 28 May 08:35:05 08:38:48 20° 302° (WNW) 08:42:30 137.62
SO-50 28 May 08:36:44 08:41:29 67° 50° (NE) 08:46:03 436.795
Cubesat XI-IV 28 May 08:41:34 08:45:45 24° 300° (WNW) 08:49:56 437.490
CANX-2 28 May 08:43:28 08:47:44 60° 101° (E) 08:51:58 2200.000
NOAA 18 28 May 08:44:40 08:48:40 21° 302° (WNW) 08:52:40 137.9125
SEEDS 28 May 08:45:07 08:49:09 40° 98° (E) 08:53:10 437.485
PRISM 28 May 08:46:00 08:49:56 41° 261° (W) 08:53:55 437.425
CINEMA 3 28 May 08:55:12 08:59:24 73° 102° (ESE) 09:03:32 145.822/145.860
O/OREOS (USA 219) 28 May 08:56:29 09:00:15 26° 104° (ESE) 09:04:00 437.305
AO-85 28 May 08:57:34 09:01:04 17° 334° (NNW) 09:04:28 145.980
BRITE-PL 28 May 09:01:04 09:03:19 13° 306° (NW) 09:05:30 437.365/2234.400
AUBIESAT-1 28 May 09:01:17 09:04:33 57° 107° (ESE) 09:07:49 437.475
ANTELSAT 28 May 09:02:41 09:05:44 19° 62° (ENE) 09:08:45 437.575/2403.000
M-CUBED/EXP-1 PRIME 28 May 09:08:31 09:11:49 89° 346° (NNW) 09:15:06 437.505
HO-68 28 May 09:08:56 09:16:09 78° 106° (ESE) 09:23:21 435.675
CUTE 1.7 + AOD 2 28 May 09:10:37 09:14:55 81° 285° (WNW) 09:19:12 437.475
Oscar 11 28 May 09:17:24 09:20:53 23° 93° (E) 09:24:20 145.826/435.025
PCSat 28 May 09:20:50 09:25:42 35° 112° (ESE) 09:30:37 145.827
GOMX 1 28 May 09:22:34 09:24:50 13° 304° (NW) 09:27:03 467.674
CUTE-I 28 May 09:29:52 09:31:14 11° 309° (NW) 09:32:36 437.470
COMPASS 1 28 May 09:30:01 09:34:16 88° 103° (ESE) 09:38:29 437.405
AAUSAT CUBESAT 2 28 May 09:31:56 09:36:09 75° 103° (ESE) 09:40:21 437.432
ZACube-1 28 May 09:32:37 09:36:16 28° 95° (E) 09:39:56 437.345
Cosmos 2499 28 May 09:38:28 09:47:04 84° 81° (E) 09:55:59 435.465 / 435.565
AIST 1 28 May 09:39:35 09:42:09 15° 276° (W) 09:44:41
QB50P2 28 May 09:40:26 09:40:38 10° 56° (ENE) 09:40:51 145.880/145.840
CUBEBUG 2 28 May 09:40:31 09:44:41 71° 102° (ESE) 09:48:53 437.445
POLYITAN 1 28 May 09:42:35 09:43:06 10° 57° (ENE) 09:43:37 437.675
NANOSAT C BR1 28 May 09:54:09 09:56:02 13° 59° (ENE) 09:57:54 145.865
UNISAT 6 28 May 09:56:34 10:00:51 62° 73° (ENE) 10:05:06 437.425
DELFI C3 28 May 09:57:07 10:00:36 27° 95° (E) 10:04:05 145.870
TIGRISAT 28 May 10:03:52 10:08:10 69° 74° (ENE) 10:12:27 435.000
JAS-2 28 May 10:04:10 10:06:39 12° 41° (NE) 10:09:10 435.910
UWE-3 28 May 10:07:45 10:11:56 85° 286° (WNW) 10:16:11 435.000/436.395/437.385
FUNcube-1 28 May 10:10:01 10:14:11 66° 102° (ESE) 10:18:24 145.935
GONETS M04 28 May 10:10:34 10:18:42 46° 273° (W) 10:26:48
SO-50 28 May 10:18:13 10:21:27 19° 249° (WSW) 10:24:36 436.795
CANX-2 28 May 10:20:27 10:23:09 17° 298° (WNW) 10:25:51 2200.000
SEEDS 28 May 10:21:19 10:24:38 22° 295° (WNW) 10:27:57 437.485
CUSAT 1 28 May 10:25:06 10:29:52 20° 78° (ENE) 10:35:08 437.405
DUCHIFAT 1 28 May 10:30:29 10:33:59 26° 66° (ENE) 10:37:29 145.980
CINEMA 3 28 May 10:34:02 10:36:00 13° 301° (WNW) 10:37:57 145.822/145.860
O/OREOS (USA 219) 28 May 10:35:10 10:39:28 40° 302° (WNW) 10:43:45 437.305
AUBIESAT-1 28 May 10:37:27 10:38:40 12° 305° (NW) 10:39:52 437.475
ANTELSAT 28 May 10:37:53 10:42:07 51° 260° (W) 10:46:19 437.575/2403.000
AO-85 28 May 10:42:43 10:43:40 10° 359° (N) 10:44:37 145.980
BUGSAT 1 28 May 10:46:20 10:49:22 20° 63° (ENE) 10:52:22 437.445
CUTE 1.7 + AOD 2 28 May 10:49:09 10:50:02 11° 303° (WNW) 10:50:54 437.475
Oscar 11 28 May 10:53:06 10:57:09 39° 291° (WNW) 11:01:12 145.826/435.025
HO-68 28 May 10:57:31 11:03:13 26° 306° (NW) 11:08:55 435.675
ESTCUBE 1 28 May 11:03:14 11:05:45 15° 89° (E) 11:08:16 437.505/2401.250
PCSat 28 May 11:03:51 11:09:01 44° 312° (NW) 11:14:14 145.827
COMPASS 1 28 May 11:07:39 11:09:11 12° 302° (WNW) 11:10:42 437.405
POPSAT HIP 1 28 May 11:08:37 11:12:49 68° 73° (ENE) 11:17:02 437.405
ZACube-1 28 May 11:08:53 11:12:33 30° 292° (WNW) 11:16:15 437.345
QB50P1 28 May 11:08:55 11:13:08 70° 74° (ENE) 11:17:22 145.935-145.965
AAUSAT CUBESAT 2 28 May 11:09:03 11:11:05 13° 300° (WNW) 11:13:07 437.432
HUMSAT D 28 May 11:10:31 11:14:41 79° 102° (ESE) 11:18:53 437.325/437.525
QB50P2 28 May 11:11:28 11:15:43 78° 73° (ENE) 11:19:57 145.880/145.840
POLYITAN 1 28 May 11:13:56 11:18:10 80° 77° (ENE) 11:22:25 437.675
CUBEBUG 1 28 May 11:14:00 11:15:51 12° 88° (E) 11:17:42 437.445
CUBEBUG 2 28 May 11:18:45 11:20:49 14° 300° (WNW) 11:22:52 437.445
BEESAT 2 28 May 11:19:40 11:22:48 22° 115° (ESE) 11:25:57 435.950
VELOX 1 28 May 11:22:20 11:24:50 15° 89° (E) 11:27:20 145.980
NANOSAT C BR1 28 May 11:26:57 11:31:11 80° 257° (WSW) 11:35:25 145.865
DELFI C3 28 May 11:31:57 11:35:27 29° 293° (WNW) 11:38:56 145.870
Cosmos 2499 28 May 11:32:48 11:39:16 25° 281° (W) 11:45:53 435.465 / 435.565
UNISAT 6 28 May 11:35:33 11:37:59 15° 270° (W) 11:40:24 437.425
JAS-2 28 May 11:42:41 11:49:39 42° 62° (ENE) 11:56:55 435.910
TIGRISAT 28 May 11:43:19 11:45:20 13° 271° (W) 11:47:22 435.000
UWE-3 28 May 11:46:59 11:47:44 10° 303° (WNW) 11:48:30 435.000/436.395/437.385
FUNcube-1 28 May 11:47:38 11:49:59 15° 299° (WNW) 11:52:19 145.935
Oscar 19 28 May 11:50:24 11:54:00 19° 58° (ENE) 11:57:36 437.125/150
BEESAT 3 28 May 11:52:01 11:55:57 78° 124° (SE) 11:59:55 437.485
AISAT 28 May 11:57:24 12:01:26 34° 97° (E) 12:05:26 437.250
50 SAT 28 May 11:58:57 12:02:25 36° 98° (E) 12:05:53 437.505
UKube-1 28 May 12:01:33 12:05:07 24° 94° (E) 12:08:39 .
CUSAT 1 28 May 12:04:08 12:10:46 90° 305° (NW) 12:18:44 437.405
DANDE 28 May 12:05:44 12:11:17 50° 91° (E) 12:18:24 436.750
DUCHIFAT 1 28 May 12:05:44 12:09:34 33° 263° (W) 12:13:24 145.980
Gurwin Techsat 1B 28 May 12:19:42 12:22:53 16° 56° (NE) 12:26:03 435.225
BUGSAT 1 28 May 12:20:23 12:24:26 46° 261° (W) 12:28:29 437.445
AO-85 28 May 12:23:10 12:26:17 16° 24° (NNE) 12:29:16 145.980
ESTCUBE 1 28 May 12:38:30 12:43:03 69° 287° (WNW) 12:47:34 437.505/2401.250
POPSAT HIP 1 28 May 12:47:05 12:49:04 13° 271° (W) 12:51:03 437.405
QB50P1 28 May 12:47:31 12:49:24 13° 271° (W) 12:51:18 145.935-145.965
HUMSAT D 28 May 12:47:58 12:49:45 13° 301° (WNW) 12:51:33 437.325/437.525
CUBEBUG 1 28 May 12:48:17 12:52:42 75° 285° (WNW) 12:57:02 437.445
DX 1 28 May 12:49:13 12:53:37 89° 119° (ESE) 12:57:58 434.975-435.025
QB50P2 28 May 12:50:42 12:52:03 11° 272° (W) 12:53:25 145.880/145.840
PCSat 28 May 12:51:06 12:53:54 14° 336° (NNW) 12:56:41 145.827
POLYITAN 1 28 May 12:53:21 12:54:32 11° 272° (W) 12:55:43 437.675
BEESAT 2 28 May 12:56:35 13:00:24 44° 313° (NW) 13:04:16 435.950
VELOX 1 28 May 12:57:21 13:01:46 64° 288° (WNW) 13:06:07 145.980
SPROUT 28 May 13:11:38 13:15:56 80° 104° (ESE) 13:20:10 437.525
JAS-2 28 May 13:27:15 13:34:28 51° 263° (W) 13:42:08 435.910
Oscar 19 28 May 13:27:36 13:32:47 72° 257° (WSW) 13:38:01 437.125/150
Cosmos 2491 28 May 13:28:31 13:35:15 24° 58° (ENE) 13:41:56 435.465 / 435.565
BEESAT 3 28 May 13:31:20 13:34:07 18° 325° (NW) 13:36:56 437.485
TISAT 1 28 May 13:32:57 13:36:53 38° 98° (E) 13:40:46 437.305
50 SAT 28 May 13:33:13 13:35:57 20° 295° (WNW) 13:38:40 437.505
AISAT 28 May 13:34:03 13:37:50 28° 295° (WNW) 13:41:35 437.250
AIST 2 28 May 13:34:57 13:38:45 37° 119° (ESE) 13:42:36 435.215
UKube-1 28 May 13:37:16 13:41:16 37° 292° (WNW) 13:45:14 .
AO-7 28 May 13:45:52 13:52:47 31° 51° (NE) 13:59:43 29.400- 29.500
CUSAT 1 28 May 13:48:41 13:54:09 23° 304° (NW) 14:00:11 437.405
DANDE 28 May 13:48:59 13:54:29 35° 297° (WNW) 14:01:18 436.750
Gurwin Techsat 1B 28 May 13:56:47 14:02:06 89° 258° (WSW) 14:07:28 435.225
AO-85 28 May 14:03:08 14:07:54 56° 47° (NE) 14:12:13 145.980
ITAMSAT 1 28 May 14:11:05 14:16:07 54° 69° (ENE) 14:21:11 435.822/435.867
DX 1 28 May 14:27:22 14:29:08 12° 303° (WNW) 14:30:54 434.975-435.025
CUBEBUG 1 28 May 14:27:37 14:28:11 10° 305° (NW) 14:28:45 437.445
BEESAT 2 28 May 14:37:59 14:39:16 11° 335° (NNW) 14:40:33 435.950
SWISSCUBE 28 May 14:38:33 14:43:06 40° 98° (E) 14:47:36 437.505
ITUPSAT 1 28 May 14:45:10 14:49:45 42° 99° (E) 14:54:17 437.325
SPROUT 28 May 14:49:21 14:51:16 13° 302° (WNW) 14:53:12 437.525
RS-15 28 May 15:07:09 15:11:03 12° 90° (E) 15:14:59 29.354- 29.394
BEESAT 28 May 15:08:02 15:12:50 70° 103° (ESE) 15:17:36 436.000
TISAT 1 28 May 15:09:03 15:12:20 23° 296° (WNW) 15:15:37 437.305
AIST 2 28 May 15:13:36 15:17:18 31° 318° (NW) 15:21:02 435.215
Cosmos 2491 28 May 15:24:36 15:33:26 90° 276° (W) 15:42:09 435.465 / 435.565
YUBILEINY 28 May 15:28:36 15:36:26 40° 85° (E) 15:44:18 435.215
AO-7 28 May 15:36:33 15:44:51 78° 252° (WSW) 15:53:14 29.400- 29.500
Gurwin Techsat 1B 28 May 15:40:20 15:42:49 13° 273° (W) 15:45:19 435.225
AO-85 28 May 15:44:26 15:47:55 21° 249° (WSW) 15:51:11 145.980
KKS-1 28 May 15:49:27 15:53:08 25° 94° (E) 15:56:48 437.445
ITAMSAT 1 28 May 15:51:53 15:55:55 23° 268° (W) 15:59:58 435.822/435.867
Cosmos 2504 28 May 15:59:36 16:03:21 15° 73° (ENE) 16:07:13 435.465 / 435.565
MOZHAYETS 4 28 May 16:11:08 16:15:21 33° 96° (E) 16:19:33
HORYU 2 28 May 16:16:38 16:20:58 58° 72° (ENE) 16:25:19 437.375
SWISSCUBE 28 May 16:16:41 16:20:44 28° 296° (WNW) 16:24:45 437.505
PCSat 28 May 16:22:22 16:25:48 17° 29° (NNE) 16:29:15 145.827
STARS 28 May 16:22:32 16:26:20 28° 96° (E) 16:30:06 437.465
ITUPSAT 1 28 May 16:23:23 16:27:24 27° 297° (WNW) 16:31:25 437.325
NOAA 15 28 May 16:39:09 16:43:26 25° 61° (ENE) 16:47:44 137.62
BEESAT 28 May 16:46:58 16:50:06 18° 301° (WNW) 16:53:15 436.000
Cubesat XI-IV 28 May 16:47:52 16:51:48 22° 59° (ENE) 16:55:45 437.490
NOAA 18 28 May 16:53:16 16:57:54 30° 62° (ENE) 17:02:34 137.9125
BRITE-PL 28 May 16:55:59 17:00:43 28° 63° (ENE) 17:05:25 437.365/2234.400
LilacSat-2 28 May 16:56:34 16:58:39 14° 62° (ENE) 17:00:45 437.200
RS-15 28 May 17:09:29 17:20:24 56° 114° (ESE) 17:31:54 29.354- 29.394
GOMX 1 28 May 17:16:30 17:20:31 21° 61° (ENE) 17:24:27 467.674
Cosmos 2491 28 May 17:22:59 17:29:02 21° 284° (WNW) 17:35:03 435.465 / 435.565
O/OREOS (USA 219) 28 May 17:24:26 17:26:50 14° 44° (NE) 17:29:13 437.305
YUBILEINY 28 May 17:24:35 17:33:01 52° 287° (WNW) 17:41:30 435.215
KKS-1 28 May 17:25:43 17:29:48 37° 292° (WNW) 17:33:52 437.445
CUTE-I 28 May 17:32:23 17:37:26 47° 68° (ENE) 17:42:31 437.470
AO-7 28 May 17:33:51 17:38:59 17° 273° (W) 17:44:10 29.400- 29.500
CUBESAT XI-V 28 May 17:39:06 17:43:22 33° 95° (E) 17:47:36 437.345
Cosmos 2504 28 May 17:48:00 17:55:14 77° 96° (E) 18:02:58 435.465 / 435.565
MOZHAYETS 4 28 May 17:48:25 17:52:27 31° 294° (WNW) 17:56:31
HORYU 2 28 May 17:55:09 17:57:55 16° 269° (W) 18:00:41 437.375
HO-68 28 May 17:56:00 18:00:48 20° 49° (NE) 18:05:37 435.675
BEESAT 2 28 May 17:57:55 17:58:54 11° 24° (NNE) 17:59:53 435.950
STARS 28 May 17:58:48 18:02:42 32° 294° (WNW) 18:06:35 437.465
DOVE 4 28 May 18:00:06 18:04:13 25° 64° (ENE) 18:08:11 437.250
PCSat 28 May 18:05:01 18:10:24 58° 52° (NE) 18:15:44 145.827
AUBIESAT-1 28 May 18:17:27 18:19:47 15° 57° (ENE) 18:22:02 437.475
NOAA 15 28 May 18:17:42 18:22:54 54° 260° (W) 18:28:08 137.62
M-CUBED/EXP-1 PRIME 28 May 18:24:15 18:27:19 21° 60° (ENE) 18:30:14 437.505
CINEMA 3 28 May 18:25:15 18:27:26 13° 59° (ENE) 18:29:35 145.822/145.860
Cubesat XI-IV 28 May 18:26:08 18:31:25 65° 258° (WSW) 18:36:44 437.490
LilacSat-2 28 May 18:28:50 18:32:33 54° 260° (W) 18:36:18 437.200
BEESAT 3 28 May 18:29:25 18:32:28 21° 37° (NE) 18:35:29 437.485
CUTE 1.7 + AOD 2 28 May 18:33:02 18:34:58 13° 59° (ENE) 18:36:55 437.475
NOAA 18 28 May 18:33:07 18:38:21 47° 260° (W) 18:43:38 137.9125
BRITE-PL 28 May 18:33:17 18:38:50 55° 261° (W) 18:44:26 437.365/2234.400
COMPASS 1 28 May 18:51:45 18:52:46 11° 57° (ENE) 18:53:46 437.405
GOMX 1 28 May 18:52:40 18:58:07 68° 258° (WSW) 19:03:28 467.674
O/OREOS (USA 219) 28 May 19:02:28 19:06:59 85° 67° (ENE) 19:11:27 437.305
CUBEBUG 2 28 May 19:08:36 19:09:46 11° 58° (ENE) 19:10:56 437.445
CUTE-I 28 May 19:13:15 19:17:42 27° 266° (W) 19:22:12 437.470
CUBESAT XI-V 28 May 19:16:32 19:20:43 32° 294° (WNW) 19:24:52 437.345
RS-15 28 May 19:21:37 19:32:59 58° 321° (NW) 19:44:59 29.354- 29.394
STRAND 1 28 May 19:22:49 19:27:21 30° 95° (E) 19:31:52 437.568
YUBILEINY 28 May 19:28:48 19:32:22 13° 313° (NW) 19:35:58 435.215
UWE-3 28 May 19:33:46 19:35:54 14° 60° (ENE) 19:38:01 435.000/436.395/437.385
BEESAT 2 28 May 19:34:00 19:37:48 40° 46° (NE) 19:41:35 435.950
DOVE 4 28 May 19:36:34 19:41:38 51° 261° (W) 19:46:30 437.250
CANX-2 28 May 19:39:01 19:43:10 63° 74° (ENE) 19:47:22 2200.000
SEEDS 28 May 19:39:43 19:43:39 41° 70° (ENE) 19:47:37 437.485
HO-68 28 May 19:40:21 19:47:28 78° 70° (ENE) 19:54:39 435.675
Cosmos 2504 28 May 19:43:51 19:49:36 24° 300° (WNW) 19:55:40 435.465 / 435.565
PCSat 28 May 19:49:03 19:53:25 25° 251° (WSW) 19:57:46 145.827
AUBIESAT-1 28 May 19:49:59 19:53:58 58° 252° (WSW) 19:57:42 437.475
M-CUBED/EXP-1 PRIME 28 May 19:57:50 20:01:44 39° 255° (WSW) 20:05:21 437.505
CINEMA 3 28 May 19:59:17 20:04:00 86° 255° (WSW) 20:08:32 145.822/145.860
CUTE 1.7 + AOD 2 28 May 20:06:01 20:10:14 78° 259° (WSW) 20:14:29 437.475
BEESAT 3 28 May 20:06:35 20:10:31 63° 237° (WSW) 20:14:25 437.485
Oscar 11 28 May 20:15:10 20:18:45 26° 66° (ENE) 20:22:22 145.826/435.025
AIST 2 28 May 20:15:33 20:18:00 15° 30° (NNE) 20:20:27 435.215
COMPASS 1 28 May 20:23:29 20:27:38 87° 73° (ENE) 20:31:49 437.405
PRISM 28 May 20:24:47 20:28:00 21° 93° (E) 20:31:11 437.425
AAUSAT CUBESAT 2 28 May 20:24:53 20:29:00 73° 75° (ENE) 20:33:10 437.432
ZACube-1 28 May 20:31:27 20:35:13 33° 68° (ENE) 20:38:57 437.345
Cosmos 2499 28 May 20:32:53 20:34:53 11° 69° (ENE) 20:36:55 435.465 / 435.565
AIST 1 28 May 20:33:30 20:37:15 28° 89° (E) 20:41:01
GOMX 1 28 May 20:36:53 20:37:05 10° 276° (W) 20:37:17 467.674
CUBEBUG 2 28 May 20:41:24 20:45:46 86° 72° (ENE) 20:50:01 437.445
O/OREOS (USA 219) 28 May 20:44:18 20:45:39 11° 263° (W) 20:47:01 437.305
DELFI C3 28 May 20:46:14 20:49:31 25° 66° (ENE) 20:52:49 145.870
CUSAT 1 28 May 20:54:54 21:00:46 22° 55° (NE) 21:06:03 437.405
DANDE 28 May 20:59:08 21:04:02 16° 49° (NE) 21:08:49 436.750
STRAND 1 28 May 21:01:49 21:06:37 40° 293° (WNW) 21:11:24 437.568
UWE-3 28 May 21:07:36 21:11:52 72° 258° (WSW) 21:16:05 435.000/436.395/437.385
FUNcube-1 28 May 21:08:23 21:12:34 75° 76° (ENE) 21:16:44 145.935
BEESAT 2 28 May 21:12:12 21:15:29 25° 244° (WSW) 21:18:45 435.950
SEEDS 28 May 21:16:25 21:19:33 20° 268° (W) 21:22:42 437.485
CANX-2 28 May 21:17:15 21:19:28 14° 271° (W) 21:21:41 2200.000
GONETS M04 28 May 21:18:34 21:26:47 46° 87° (E) 21:34:58
ISS 28 May 21:22:47 21:25:46 33° 144° (SE) 21:28:45 145.825
HO-68 28 May 21:30:32 21:35:56 23° 270° (W) 21:41:24 435.675
RS-15 28 May 21:38:08 21:48:41 35° 353° (N) 21:59:37 29.354- 29.394
CINEMA 3 28 May 21:41:04 21:41:46 10° 273° (W) 21:42:26 145.822/145.860
Oscar 11 28 May 21:50:52 21:54:46 34° 263° (W) 21:58:44 145.826/435.025
AIST 2 28 May 21:53:06 21:57:15 68° 50° (NE) 22:01:23 435.215
TIGRISAT 28 May 21:54:26 21:55:31 11° 88° (E) 21:56:37 435.000
PRISM 28 May 21:59:32 22:03:28 40° 291° (WNW) 22:07:22 437.425
AAUSAT CUBESAT 2 28 May 22:03:34 22:05:01 12° 272° (W) 22:06:28 437.432
HUMSAT D 28 May 22:04:37 22:08:42 81° 75° (ENE) 22:12:48 437.325/437.525
ESTCUBE 1 28 May 22:05:33 22:08:53 21° 62° (ENE) 22:12:15 437.505/2401.250
ZACube-1 28 May 22:08:03 22:11:34 25° 266° (W) 22:15:04 437.345
AIST 1 28 May 22:10:52 22:14:47 31° 288° (WNW) 22:18:43
CUBEBUG 1 28 May 22:12:37 22:15:30 17° 61° (ENE) 22:18:23 437.445
DX 1 28 May 22:13:40 22:16:11 15° 59° (ENE) 22:18:42 434.975-435.025
Cosmos 2499 28 May 22:18:56 22:26:05 61° 92° (E) 22:33:50 435.465 / 435.565
DELFI C3 28 May 22:20:45 22:24:17 31° 264° (W) 22:27:52 145.870
VELOX 1 28 May 22:22:22 22:25:42 21° 62° (ENE) 22:29:02 145.980
CUBEBUG 2 28 May 22:22:31 22:22:58 10° 273° (W) 22:23:24 437.445
ANTELSAT 28 May 22:26:27 22:30:01 25° 94° (E) 22:33:35 437.575/2403.000
PHONESAT 2.4 28 May 22:34:49 22:36:59 17° 165° (SSE) 22:39:09 2401.200-2431.200
SPROUT 28 May 22:35:23 22:36:55 12° 58° (ENE) 22:38:26 437.525
CUSAT 1 28 May 22:36:17 22:44:14 86° 79° (E) 22:50:48 437.405
50 SAT 28 May 22:40:22 22:43:28 27° 68° (ENE) 22:46:36 437.505
DANDE 28 May 22:40:33 22:48:54 57° 72° (ENE) 22:56:31 436.750
FUNcube-1 28 May 22:48:00 22:49:21 11° 272° (W) 22:50:42 145.935
AISAT 28 May 22:57:29 23:01:45 45° 70° (ENE) 23:06:01 437.250
SO-50 28 May 22:58:28 22:58:38 10° 106° (ESE) 22:58:48 436.795
ISS 28 May 22:58:54 23:02:07 56° 343° (NNW) 23:05:21 145.825
UKube-1 28 May 22:58:54 23:02:44 31° 67° (ENE) 23:06:35 .
POLYITAN 1 28 May 22:58:57 22:59:12 10° 87° (E) 22:59:29 437.675
NANOSAT C BR1 28 May 23:09:52 23:11:50 13° 89° (E) 23:13:46 145.865
GONETS M04 28 May 23:15:17 23:23:37 46° 289° (WNW) 23:31:59
UNISAT 6 28 May 23:21:22 23:25:41 89° 93° (E) 23:30:04 437.425
TIGRISAT 28 May 23:28:29 23:32:48 82° 284° (WNW) 23:37:09 435.000
AIST 2 28 May 23:32:49 23:35:15 15° 249° (WSW) 23:37:40 435.215
ESTCUBE 1 28 May 23:40:58 23:45:22 51° 260° (W) 23:49:49 437.505/2401.250
DUCHIFAT 1 28 May 23:46:30 23:50:10 29° 96° (E) 23:53:48 145.980
CUBEBUG 1 28 May 23:46:56 23:51:20 62° 259° (W) 23:55:45 437.445
DX 1 28 May 23:47:28 23:51:50 71° 257° (WSW) 23:56:15 434.975-435.025
RS-15 28 May 23:53:44 00:05:12 44° 27° (NNE) 00:16:49 29.354- 29.394
VELOX 1 28 May 23:57:31 00:01:52 49° 261° (W) 00:06:13 145.980
BUGSAT 1 28 May 23:59:42 00:02:38 19° 92° (E) 00:05:31 437.445
ANTELSAT 29 May 00:02:53 00:06:49 36° 291° (WNW) 00:10:48 437.575/2403.000
SPROUT 29 May 00:07:54 00:12:12 90° 75° (ENE) 00:16:32 437.525
PHONESAT 2.4 29 May 00:10:36 00:13:10 23° 182° (S) 00:15:45 2401.200-2431.200
Cosmos 2499 29 May 00:13:24 00:19:48 31° 296° (WNW) 00:26:40 435.465 / 435.565
50 SAT 29 May 00:14:13 00:17:12 24° 265° (W) 00:20:13 437.505
SWISSCUBE 29 May 00:14:51 00:15:42 10° 53° (NE) 00:16:33 437.505
CUSAT 1 29 May 00:19:46 00:25:12 22° 281° (WNW) 00:30:04 437.405
ITUPSAT 1 29 May 00:21:24 00:22:34 11° 54° (NE) 00:23:44 437.325
DANDE 29 May 00:23:53 00:31:29 39° 273° (W) 00:38:29 436.750
POPSAT HIP 1 29 May 00:25:52 00:30:05 82° 101° (ESE) 00:34:17 437.405
QB50P1 29 May 00:26:08 00:30:22 84° 104° (ESE) 00:34:33 145.935-145.965
TISAT 1 29 May 00:27:22 00:31:22 44° 70° (ENE) 00:35:23 437.305
QB50P2 29 May 00:28:55 00:33:09 86° 290° (WNW) 00:37:22 145.880/145.840
POLYITAN 1 29 May 00:31:24 00:35:37 85° 285° (WNW) 00:39:49 437.675
SO-50 29 May 00:33:21 00:38:14 68° 124° (SE) 00:43:06 436.795
JAS-2 29 May 00:34:33 00:40:41 27° 88° (E) 00:46:18 435.910
UKube-1 29 May 00:35:00 00:38:47 29° 264° (W) 00:42:35 .
AISAT 29 May 00:35:00 00:38:26 21° 267° (W) 00:41:53 437.250
ISS 29 May 00:35:52 00:38:56 36° 2° (N) 00:42:01 145.825
BEESAT 29 May 00:41:57 00:44:56 17° 58° (ENE) 00:47:55 436.000
NANOSAT C BR1 29 May 00:43:51 00:48:02 66° 286° (WNW) 00:52:10 145.865
UNISAT 6 29 May 01:00:11 01:01:47 12° 302° (WNW) 01:03:23 437.425
TIGRISAT 29 May 01:07:48 01:08:48 11° 303° (WNW) 01:09:47 435.000
GONETS M04 29 May 01:21:03 01:23:20 11° 316° (NW) 01:25:36
DUCHIFAT 1 29 May 01:22:12 01:25:50 29° 293° (WNW) 01:29:27 145.980
YUBILEINY 29 May 01:34:11 01:41:01 24° 59° (ENE) 01:47:49 435.215
BUGSAT 1 29 May 01:34:23 01:38:12 41° 290° (WNW) 01:41:59 437.445
Oscar 19 29 May 01:36:13 01:40:49 31° 95° (E) 01:45:22 437.125/150
PHONESAT 2.4 29 May 01:47:30 01:49:19 14° 199° (SSW) 01:51:08 2401.200-2431.200
SWISSCUBE 29 May 01:47:52 01:52:35 67° 72° (ENE) 01:57:21 437.505
ITUPSAT 1 29 May 01:54:48 01:59:31 69° 72° (ENE) 02:04:17 437.325
POPSAT HIP 1 29 May 02:03:32 02:05:16 12° 302° (WNW) 02:07:00 437.405
QB50P1 29 May 02:03:52 02:05:31 12° 302° (WNW) 02:07:10 145.935-145.965
TISAT 1 29 May 02:04:08 02:07:14 20° 267° (W) 02:10:22 437.305
RS-15 29 May 02:06:56 02:19:17 87° 236° (SW) 02:31:37 29.354- 29.394
QB50P2 29 May 02:07:08 02:08:17 11° 303° (WNW) 02:09:25 145.880/145.840
POLYITAN 1 29 May 02:09:45 02:10:43 11° 303° (WNW) 02:11:43 437.675
Gurwin Techsat 1B 29 May 02:10:09 02:14:44 29° 94° (E) 02:19:18 435.225
ISS 29 May 02:12:25 02:15:42 73° 22° (NNE) 02:18:57 145.825
SO-50 29 May 02:15:01 02:19:09 26° 324° (NW) 02:23:17 436.795
BEESAT 29 May 02:17:26 02:22:10 73° 257° (WSW) 02:26:58 436.000
JAS-2 29 May 02:18:53 02:26:23 69° 290° (WNW) 02:33:06 435.910
ITAMSAT 1 29 May 02:22:04 02:24:56 15° 88° (E) 02:27:48 435.822/435.867
Cosmos 2491 29 May 02:35:49 02:42:07 23° 77° (ENE) 02:48:24 435.465 / 435.565
KKS-1 29 May 02:50:16 02:54:19 35° 67° (ENE) 02:58:22 437.445
Oscar 19 29 May 03:15:26 03:20:13 39° 294° (WNW) 03:24:56 437.125/150
MOZHAYETS 4 29 May 03:15:53 03:20:13 45° 70° (ENE) 03:24:35
STARS 29 May 03:21:56 03:26:00 38° 68° (ENE) 03:30:05 437.465
SWISSCUBE 29 May 03:27:56 03:30:52 16° 270° (W) 03:33:49 437.505
YUBILEINY 29 May 03:30:16 03:39:04 88° 263° (W) 03:47:53 435.215
AO-7 29 May 03:34:59 03:42:07 30° 94° (E) 03:49:12 29.400- 29.500
ITUPSAT 1 29 May 03:35:02 03:37:52 16° 271° (W) 03:40:43 437.325
Cosmos 2504 29 May 03:35:34 03:43:15 37° 68° (ENE) 03:51:13 435.465 / 435.565
ISS 29 May 03:49:15 03:51:53 22° 220° (SW) 03:54:30 145.825
Gurwin Techsat 1B 29 May 03:49:48 03:54:51 44° 292° (WNW) 03:59:52 435.225
ITAMSAT 1 29 May 03:59:48 04:05:04 83° 287° (WNW) 04:10:18 435.822/435.867
SO-50 29 May 03:59:49 04:01:19 11° 348° (NNW) 04:02:48 436.795
JAS-2 29 May 04:05:19 04:09:59 18° 312° (NW) 04:14:25 435.910
RS-15 29 May 04:20:36 04:30:12 28° 259° (WSW) 04:39:47 29.354- 29.394
AO-85 29 May 04:24:10 04:25:00 10° 105° (ESE) 04:25:51 145.980
KKS-1 29 May 04:27:06 04:30:56 27° 265° (W) 04:34:46 437.445
Cosmos 2491 29 May 04:28:56 04:37:48 88° 278° (W) 04:46:41 435.465 / 435.565
CUBESAT XI-V 29 May 04:45:10 04:49:37 45° 69° (ENE) 04:54:07 437.345
MOZHAYETS 4 29 May 04:54:05 04:57:36 22° 268° (W) 05:01:10
STARS 29 May 04:58:52 05:02:29 24° 266° (W) 05:06:06 437.465
STRAND 1 29 May 05:07:49 05:08:28 10° 51° (NE) 05:09:08 437.568
AO-7 29 May 05:27:13 05:35:32 71° 294° (WNW) 05:43:51 29.400- 29.500
YUBILEINY 29 May 05:28:40 05:34:36 21° 284° (WNW) 05:40:33 435.215
Cosmos 2504 29 May 05:28:49 05:37:00 58° 269° (W) 05:45:34 435.465 / 435.565
HORYU 2 29 May 05:40:38 05:45:05 76° 103° (ESE) 05:49:31 437.375
ITAMSAT 1 29 May 05:40:59 05:43:45 15° 305° (NW) 05:46:31 435.822/435.867
SO-50 29 May 05:42:28 05:44:01 11° 13° (NNE) 05:45:33 436.795
CUTE-I 29 May 05:47:32 05:50:21 14° 87° (E) 05:53:10 437.470
AO-85 29 May 05:59:12 06:04:35 62° 122° (ESE) 06:09:49 145.980
LilacSat-2 29 May 06:00:32 06:02:16 13° 89° (E) 06:04:00 437.200
CUBESAT XI-V 29 May 06:23:31 06:27:13 23° 268° (W) 06:30:57 437.345
Cosmos 2491 29 May 06:29:22 06:36:02 23° 302° (WNW) 06:42:42 435.465 / 435.565
NOAA 15 29 May 06:29:31 06:34:37 45° 99° (E) 06:39:39 137.62
BRITE-PL 29 May 06:35:38 06:40:32 43° 96° (E) 06:45:03 437.365/2234.400
AIST 1 29 May 06:38:51 06:39:59 11° 62° (ENE) 06:41:06
Cubesat XI-IV 29 May 06:40:08 06:45:10 39° 97° (E) 06:50:10 437.490
STRAND 1 29 May 06:41:37 06:46:37 59° 71° (ENE) 06:51:39 437.568
NOAA 18 29 May 06:51:30 06:56:54 57° 101° (ESE) 07:02:18 137.9125
GOMX 1 29 May 06:52:22 06:56:26 28° 93° (E) 07:00:15 467.674
HO-68 29 May 07:08:00 07:10:01 11° 83° (E) 07:12:01 435.675
